星链-31099 (STARLINK-31099 )

导读

STARLINK-31099是美国SpaceX公司星链星座中的一颗低轨通信卫星,于2024年1月14日发射升空。它运行在近地轨道,依托星链星座组网能力,可为全球偏远地区、网络基础设施薄弱区域提供高速低延迟宽带互联网服务,是SpaceX构建全球覆盖低轨卫星互联网计划的重要组成部分,助力推动全球互联网络覆盖进一步完善。

基本信息
目录编号:
58781
目录名称:
STARLINK-31099
国际标识:
2024-011S
轨道中心:
EARTH
卫星名称:
星链-31099
卫星全名:
星链-31099 (STARLINK-31099 )
卫星状态:
在轨 (已飞行964 天)
发射日期:
2024-01-14 UTC
国别 :
美国 (US)
星等 :
--
轨道信息
数据来源 国际轨道数据 AOE轨道数据
星历时间 2026-09-02T15:45:07+0800
1天前
查看轨道信息
2026-08-30T05:00:00+0800
5天前
查看轨道信息
半长轴 6840.89km 6840.863km
偏心率 0.0001201 0.000117
轨道倾角 53.160° 53.157°
近地点辐角 83.878° 95.510°
升交点赤经 272.517° 288.635°
平近点角 276.236° 287.901°
近地点 461.931km 461.925km
远地点 463.575km 463.527km
周期 93.849分钟 93.848分钟
每日圈数 15.343833 15.343925
详细信息
固有亮度:
5
最大亮度:
0.3
卫星平台:
Starlink v2.0 mini
覆盖范围:
全球
运营商:
太空探索技术公司
运营商所在国:
美国
制造商(研发单位):
太空探索技术公司
制造商所在国:
美国
使用方式:
暂无
卫星简介
星链(Starlink)计划是由太空探索技术公司(SpaceX)提出的一个巨型低轨卫星互联网星座项目,计划在2019年至2024年间在太空搭建由约1.2万颗卫星组成的“星链”网络,其中1584颗将部署在地球上空550千米处的近地轨道,并从2020年开始工作。该卫星仍在工作。
2D轨道图
3D轨道图
轨道高度分析图
轨道倾角分析图
轨道综合分析图
查看轨道综合分析图
交会数据列表
事件ID 空间交会对象 最接近时刻(TCA) 交会距离 交会风险概率(CRP) 交会风险指数(CRI) 操作
CDM_260904-184205-878106-937522
2026-09-04T
18:42:12+0000
0.886 km
远距离
1.841122E-5 中风险 0.6
CDM_260904-114005-878106-937522
2026-09-04T
11:40:08+0000
1.471 km
极远距离
3.335049E-6 低风险 0.45
CDM_260905-081205-230505-878121
2026-09-05T
08:12:56+0000
2.571 km
极远距离
1.301445E-6 低风险 0.37
CDM_260904-131305-878106-937522
2026-09-04T
13:13:55+0000
2.154 km
极远距离
1.200097E-6 低风险 0.37
CDM_260905-000305-019205-878122
2026-09-05T
00:03:05+0000
2.948 km
极远距离
1.109394E-6 低风险 0.36
CDM_260904-170805-878106-937522
2026-09-04T
17:08:24+0000
2.483 km
极远距离
9.175925E-7 极低风险 0.34
CDM_260903-020405-174405-878122
2026-09-03T
02:04:10+0000
2.652 km
极远距离
7.533118E-7 极低风险 0.33